User: anonymous   Login
Location: Unspecified
(0.0000°N, 0.0000°E)
Time: 12:21:41
(UTC+02:00)
Language:

Cosmos 2082 Rocket - Orbit

View from above orbital plane
View from above orbital plane
View from above satellite
View from above satellite

Ground track
Ground track

The orbit data is extracted from the following two-line orbital elements,

1 20625U 90046B   17175.34990121 +.00000261 +00000-0 +16060-3 0  9999
2 20625 070.9986 134.1058 0012308 097.9170 262.3350 14.14616480398595
Epoch (UTC): 24 June 2017 08:23:51
Eccentricity: 0.0012308
inclination: 70.9986°
perigee height: 835 km
apogee height: 852 km
right ascension of ascending node: 134.1058°
argument of perigee: 97.9170°
revolutions per day: 14.14616480
mean anomaly at epoch: 262.3350°
orbit number at epoch: 39859

The dashed part of the orbit path shows where the satellite is in the earth's shadow,  

DLR